Showing default

COSMOS 86, 1584

Orbit data source: Space-Track

COSMOS 86, 1584 is a payload satellite owned by OKB-10 (CIS) in LEO that was launched on Sat, 18 Sep 1965 UTC via a KOSMOS 65S3 launch vehicle from the Tyuratam Missile And Space Complex (TTMTR). Payload-class satellites include a variety of spacecraft equipped with specific instruments for various scientific and technological missions. These include communications satellites like Starlink; space stations such as the ISS; scientific satellites like the Hubble; Earth observation satellites from companies like Planet Labs, Umbra, and HawkEye 360; GPS; miniature CubeSats for education and research; and military/defense satellites.

Loading next visibility...
Identifier
1584, 1965-073A
Orbit
LEO
Country
Flag of CISCIS
Related business
Manufacturer
OKB-10
Mission
Spacecraft
Bus & Motor
STRELA-1 11F610, Unknown motor
Mass
50 kg wet, 50 kg dry
Launch date (UTC)
1965-09-18 (61 years ago)
Launch vehicle
KOSMOS 65S3
Launch site
Tyuratam Missile And Space Complex (TTMTR)
Object type
Payload
Rocket body
Debris
Shape & HBR
Unknown
Radar Cross Section
Medium (>0.1 m² and <1 m²)

Expand to show TLE details & history
Last TLE update: 16 hours ago

TLE from 16 hours ago
0 COSMOS 86
1 01584U 65073A   26174.63980851 -.00000095  00000-0  43068-5 0  9990
2 01584  56.0582 122.5931 0211999 292.4517 241.4885 12.51921347778256
Epoch: 2026-06-23T15:21Z
TLE epoch observation values (Epoch: 2026-06-23T15:21:19.455Z)
Latitude
6.73009°
Longitude
155.92043°
Altitude
1,538.865 km
Speed
7.061 km/s
True Right ascension
19h 52m 14s
True Declination
6° 41' 39"
Sunlit
Object was in full shadow at epoch
Visualization orbit readout
Latitude
Unknown
Longitude
Unknown
Altitude
Unknown
Speed
Unknown
Apparent Right ascension
Unknown
Apparent Declination
Unknown
Sunlit
N/A
Visualization observer readout
Local Sidereal Time
18:09:11
Azimuth
Unknown
Elevation
Unknown
Doppler factor
Unknown
Orbital elements
Apogee altitude
1,622.381 km
Perigee altitude
1,290.202 km
Semi-major axis
7,834.428 km
Eccentricity
0.0212
Inclination
56.0582°
RAAN
122.5931°
Arg. of periapsis
292.4517°
True anomaly
239.38095°
Mean anomaly
241.4885°
Eccentric anomaly
240.43202°
Mean motion
3.12991 °/min
Orbital period
115.02 mins
BSTAR
0.0000043068
Loading maneuver chart data...
Computing Atmospheric mass density...
Loading historical data...
Loading historical data...
Loading historical data...
Loading historical data...
Loading historical data...
Loading historical data...
Loading historical data...

Documentation

Showing up to 5 results
|